Lid_Strength_Index
12 12 12 12 12 12 12 12 12 13 13 13 14 14 13 14 13 14 13 13 14 13 13 13 13 13 13 13 12 12 13 13 15 14 12 12 12 12 11 11 11 11 11
12 11 12 12 12 12 12 13 13 14 14 14 14 14 14 14 14 14 15 14 15 14 14 14 14 13 14 13 13 14 14 13 14 16 14 14 13 12 12 12 12 11 12
11 11 12 12 12 12 13 13 14 14 14 14 14 14 15 15 15 15 15 15 14 14 14 14 14 14 14 14 14 15 14 14 15 16 16 15 14 13 13 13 12 12 11
11 11 12 12 12 12 13 14 15 15 14 15 15 15 15 15 15 15 15 15 14 14 13 13 13 14 14 14 14 15 14 15 15 15 16 16 15 14 14 15 14 13 14
11 12 12 12 12 13 14 15 15 15 15 16 16 15 15 15 15 15 15 15 14 14 13 13 13 13 12 13 14 14 14 15 15 15 16 16 15 15 15 15 16 15 15
12 12 12 13 14 15 15 16 16 16 15 15 15 15 15 15 14 14 14 14 14 14 14 13 13 13 13 12 12 12 12 14 16 16 16 17 16 15 14 15 15 16 18
12 13 14 14 15 15 16 16 16 16 15 16 16 16 16 15 14 13 13 14 14 14 14 14 14 13 13 14 13 12 12 12 11 13 15 14 15 14 14 15 15 15 15
13 14 14 15 15 15 16 16 16 16 16 16 16 16 16 15 14 13 13 13 14 14 13 14 14 14 13 13 13 13 13 12 12 12 12 12 12 12 12 12 12 12 12
14 14 15 15 15 15 16 16 16 16 16 16 16 16 16 16 14 13 13 14 14 14 13 13 13 13 11 10 12 12 12 11 9 8 8 8 8 8 8 10 12 13 14
14 14 14 15 16 16 16 16 16 16 16 16 16 16 16 16 15 13 13 13 14 13 12 12 10 11 10 9 10 11 12 11 10 10 10 9 9 9 8 9 11 14 14
13 14 15 15 16 16 16 16 17 17 17 17 17 16 16 15 15 13 12 12 13 13 12 12 11 9 8 8 8 11 12 10 11 12 12 12 12 11 11 10 9 10 12
14 15 16 17 16 17 18 18 18 18 18 17 16 16 14 13 13 12 11 10 10 12 12 11 10 9 9 9 10 10 10 11 14 15 15 14 14 13 12 11 11 11 10
16 17 18 18 17 17 18 18 17 16 16 15 15 15 14 13 12 11 11 10 10 11 10 9 9 9 10 12 11 11 13 15 15 16 17 16 15 14 13 13 12 11 11
17 18 18 19 18 18 17 16 16 15 15 15 15 15 14 13 12 11 12 11 10 9 9 10 11 11 11 12 14 14 15 15 16 17 16 15 14 14 14 13 13 13 13
17 18 17 17 17 17 16 15 15 14 14 15 15 14 13 13 12 10 10 10 10 8 10 12 14 15 15 15 15 15 15 16 16 16 16 16 15 14 14 12 12 12 14
17 17 16 16 17 16 15 15 13 12 12 11 10 10 11 10 9 9 8 8 7 8 12 15 16 16 16 16 16 16 16 16 15 15 15 15 14 14 14 13 12 12 13
15 15 15 16 15 16 16 16 16 13 12 12 11 10 10 10 10 9 9 8 8 10 16 16 16 16 16 16 16 16 16 15 15 15 15 15 14 13 14 13 13 13 13
15 16 15 15 15 15 15 15 16 16 16 15 13 13 12 11 10 10 9 10 15 14 16 17 17 17 17 17 17 16 16 15 15 15 15 15 13 13 14 14 14 14 13
16 17 16 15 16 16 16 16 17 17 18 17 16 15 14 13 12 11 10 16 17 17 17 17 17 17 17 17 17 16 16 16 15 15 15 14 13 14 14 14 14 14 13
17 17 17 17 17 18 18 18 18 18 18 18 18 17 16 18 18 15 16 16 17 17 17 18 18 18 17 17 17 16 16 16 15 15 15 13 13 14 15 15 14 15 14
17 18 18 18 18 18 18 18 18 18 18 18 18 16 14 18 16 16 17 17 17 18 18 18 18 18 18 18 17 17 17 16 16 15 14 14 14 15 14 14 15 14 14
17 18 19 18 18 18 19 19 19 19 19 19 18 17 14 16 18 18 18 18 18 18 18 19 19 19 18 18 18 18 17 17 16 15 14 14 14 14 14 15 15 15 15
18 18 18 19 19 19 19 20 20 19 20 19 19 19 18 18 18 19 19 19 19 19 19 19 20 20 19 19 18 18 18 17 16 15 14 14 15 15 15 15 16 16 16
19 19 19 19 18 19 19 19 19 19 20 20 19 18 18 19 19 20 20 20 20 19 20 21 21 21 21 21 20 19 18 18 16 16 14 15 15 16 16 16 16 16 16
19 19 19 19 19 19 19 19 20 20 19 19 19 19 19 19 20 20 21 21 21 21 22 22 22 22 23 23 22 22 21 18 17 15 14 18 19 18 17 17 17 16 16
20 20 20 19 20 20 20 21 21 20 20 20 19 19 20 20 20 21 22 22 22 22 23 23 23 24 24 23 23 21 18 16 16 14 12 16 20 19 20 19 18 17 17